Galesburg, IL

8:56 AM CST on December 15, 2017 (GMT -0600)
Galesburg Municipal

Weather History for KGBG - November, 2013

Change the Weather History Date:

Wednesday, November 6, 2013

  Actual Average Record
Temperature  
Mean Temperature 43 °F -  
Max Temperature 56 °F 49 °F 72 °F (1980)
Min Temperature 30 °F 32 °F 12 °F (1991)
Degree Days  
Heating Degree Days 22    
Moisture  
Dew Point 41 °F    
Average Humidity 93    
Maximum Humidity 100    
Minimum Humidity 78    
Precipitation  
Precipitation 0.21 in - - ()
Sea Level Pressure  
Sea Level Pressure 30.02 in    
Wind  
Wind Speed 14 mph (West)    
Max Wind Speed 22 mph    
Max Gust Speed 29 mph    
Visibility 10 miles    
Events Rain    
Averages and records for this station are not official NWS values.
T = Trace of Precipitation, MM = Missing Value Source: NWS Daily Summary

Daily Weather History Graph

Daily Weather History Graph

Search for Another Location

Airport or City:

Trip Planner

Search our weather history database for the weather conditions in past years. The results will help you decide how hot, cold, wet, or windy it might be!

Date:

Astronomy

Nov. 06, 2013 Rise Set
Actual Time 6:38 AM CST 4:51 PM CST
Civil Twilight 6:09 AM CST 5:20 PM CST
Nautical Twilight 5:37 AM CST 5:53 PM CST
Astronomical Twilight 5:04 AM CST 6:25 PM CST
Moon 9:54 AM CST (11/6) 7:55 PM CST (11/6)
Length of Visible Light 11h 10m
Length of Day
10h 12m
Waxing Crescent, 14% of the Moon is Illuminated
Nov 6
Waxing Crescent
Nov 9
First Quarter
Nov 17
Full
Nov 25
Last Quarter
Dec 2
New

Hourly Weather History & Observations

Time (CST) Temp. Windchill Dew Point Humidity Pressure Visibility Wind Dir Wind Speed Gust Speed Precip Events Conditions
12:15 AM 53.6 °F - 53.2 °F 99% 29.90 in 10.0 mi South 15.0 mph 20.7 mph N/A Rain Light Rain
12:35 AM 53.6 °F - 53.6 °F 100% 29.89 in 7.0 mi South 16.1 mph 27.6 mph 0.01 in Rain Rain
12:55 AM 53.6 °F - 53.6 °F 100% 29.89 in 10.0 mi South 15.0 mph 19.6 mph 0.02 in Rain Rain
1:15 AM 53.6 °F - 53.6 °F 100% 29.88 in 7.0 mi South 13.8 mph 19.6 mph 0.02 in Rain Rain
1:35 AM 53.8 °F - 53.8 °F 100% 29.87 in 10.0 mi South 17.3 mph 21.9 mph 0.03 in   Overcast
1:55 AM 54.0 °F - 54.0 °F 100% 29.86 in 10.0 mi South 12.7 mph 19.6 mph 0.03 in Rain Rain
2:15 AM 54.0 °F - 54.0 °F 100% 29.85 in 10.0 mi South 15.0 mph 20.7 mph N/A Rain Rain
2:35 AM 54.0 °F - 54.0 °F 100% 29.85 in 7.0 mi South 15.0 mph 19.6 mph 0.02 in Rain Rain
2:55 AM 54.1 °F - 54.1 °F 100% 29.84 in 10.0 mi South 12.7 mph 20.7 mph 0.02 in Rain Light Rain
3:15 AM 54.1 °F - 54.1 °F 100% 29.84 in 10.0 mi South 13.8 mph 18.4 mph 0.01 in Rain Light Rain
3:35 AM 54.5 °F - 54.5 °F 100% 29.84 in 7.0 mi South 17.3 mph 20.7 mph 0.04 in Rain Rain
3:55 AM 54.5 °F - 54.5 °F 100% 29.83 in 7.0 mi South 13.8 mph 20.7 mph 0.07 in Rain Rain
4:15 AM 54.7 °F - 54.7 °F 100% 29.82 in 10.0 mi South 13.8 mph - 0.02 in Rain Light Rain
4:35 AM 55.0 °F - 55.0 °F 100% 29.82 in 10.0 mi South 15.0 mph 20.7 mph 0.02 in   Light Drizzle
4:55 AM 55.0 °F - 55.0 °F 100% 29.82 in 10.0 mi South 12.7 mph - 0.02 in Rain Light Rain
5:15 AM 55.4 °F - 55.4 °F 100% 29.83 in 10.0 mi South 12.7 mph 18.4 mph N/A   Light Drizzle
5:35 AM 55.6 °F - 55.6 °F 100% 29.82 in 10.0 mi South 13.8 mph 20.7 mph N/A   Drizzle
5:55 AM 55.8 °F - 55.8 °F 100% 29.82 in 10.0 mi South 13.8 mph - 0.01 in Rain Light Rain
6:15 AM 55.9 °F - 55.9 °F 100% 29.82 in 10.0 mi South 13.8 mph - 0.01 in Rain Light Rain
6:35 AM 56.3 °F - 56.3 °F 100% 29.83 in 10.0 mi SW 16.1 mph - 0.02 in Rain Rain
6:55 AM 48.7 °F - 48.2 °F 98% 29.86 in 10.0 mi West 17.3 mph 27.6 mph 0.02 in   Light Drizzle
7:15 AM 47.5 °F - 47.3 °F 99% 29.86 in 10.0 mi West 18.4 mph - 0.01 in Rain Light Rain
7:35 AM 44.1 °F 35.4 °F 43.5 °F 98% 29.88 in 7.0 mi West 21.9 mph 26.5 mph 0.01 in Rain Light Rain
7:55 AM 43.0 °F 34.0 °F 43.0 °F 100% 29.90 in 10.0 mi West 21.9 mph - 0.02 in Rain Light Rain
8:15 AM 42.3 °F 34.1 °F 42.3 °F 100% 29.91 in 3.0 mi West 17.3 mph 23.0 mph N/A Rain Light Rain
8:35 AM 41.0 °F 32.2 °F 41.0 °F 100% 29.90 in 3.0 mi West 18.4 mph - N/A   Overcast
8:55 AM 40.6 °F 32.7 °F 40.6 °F 100% 29.94 in 10.0 mi West 15.0 mph 26.5 mph N/A   Overcast
9:15 AM 40.3 °F 30.4 °F 39.6 °F 97% 29.94 in 7.0 mi West 21.9 mph 27.6 mph N/A   Overcast
9:35 AM 40.1 °F 30.5 °F 40.1 °F 100% 29.96 in 7.0 mi WNW 20.7 mph 25.3 mph N/A   Light Drizzle
9:55 AM 40.1 °F 30.5 °F 39.4 °F 97% 29.98 in 10.0 mi West 20.7 mph 28.8 mph N/A   Overcast
10:15 AM 40.1 °F 30.5 °F 39.2 °F 97% 29.98 in 10.0 mi WNW 20.7 mph 25.3 mph N/A   Overcast
10:35 AM 40.5 °F 32.1 °F 38.5 °F 93% 29.99 in 10.0 mi WNW 16.1 mph 26.5 mph N/A   Overcast
10:55 AM 40.3 °F 31.9 °F 38.3 °F 93% 29.99 in 10.0 mi WNW 16.1 mph 27.6 mph N/A   Overcast
11:15 AM 40.1 °F 31.0 °F 39.2 °F 97% 30.01 in 10.0 mi WNW 18.4 mph 21.9 mph N/A   Overcast
11:35 AM 40.6 °F 31.7 °F 37.9 °F 90% 30.01 in 10.0 mi WNW 18.4 mph 27.6 mph N/A   Overcast
11:55 AM 40.1 °F 31.3 °F 38.3 °F 93% 30.01 in 10.0 mi WNW 17.3 mph 23.0 mph N/A   Overcast
12:15 PM 40.3 °F 32.2 °F 38.3 °F 93% 30.02 in 10.0 mi NW 15.0 mph 26.5 mph N/A   Overcast
12:35 PM 41.0 °F 32.2 °F 38.7 °F 91% 30.02 in 10.0 mi NW 18.4 mph 24.2 mph N/A   Overcast
12:55 PM 42.1 °F 34.9 °F 37.9 °F 85% 30.03 in 10.0 mi WNW 13.8 mph 24.2 mph N/A   Overcast
1:15 PM 41.9 °F 33.7 °F 38.1 °F 86% 30.04 in 10.0 mi WNW 17.3 mph - N/A   Overcast
1:35 PM 42.1 °F 34.9 °F 38.5 °F 87% 30.05 in 10.0 mi WNW 13.8 mph - N/A   Overcast
1:55 PM 42.8 °F 35.4 °F 38.1 °F 84% 30.06 in 10.0 mi NW 15.0 mph 20.7 mph N/A   Overcast
2:15 PM 43.5 °F 36.4 °F 38.8 °F 84% 30.07 in 10.0 mi WNW 15.0 mph 20.7 mph N/A   Overcast
2:35 PM 43.2 °F 36.2 °F 37.8 °F 81% 30.08 in 10.0 mi WNW 13.8 mph 25.3 mph N/A   Overcast
2:55 PM 44.1 °F 36.8 °F 37.6 °F 78% 30.09 in 10.0 mi WNW 16.1 mph 19.6 mph N/A   Overcast
3:15 PM 43.9 °F 37.9 °F 37.6 °F 78% 30.09 in 10.0 mi WNW 11.5 mph - N/A   Overcast
3:35 PM 44.1 °F 36.8 °F 37.9 °F 79% 30.10 in 10.0 mi WNW 16.1 mph - N/A   Mostly Cloudy
3:55 PM 43.2 °F 37.4 °F 38.1 °F 82% 30.11 in 10.0 mi WNW 10.4 mph - N/A   Scattered Clouds
4:15 PM 43.9 °F 36.8 °F 37.8 °F 79% 30.11 in 10.0 mi WNW 15.0 mph 20.7 mph N/A   Scattered Clouds
4:35 PM 42.6 °F 36.8 °F 36.9 °F 80% 30.12 in 10.0 mi WNW 10.4 mph - N/A   Scattered Clouds
4:55 PM 40.8 °F 34.5 °F 36.9 °F 86% 30.13 in 10.0 mi WNW 10.4 mph - N/A   Clear
5:15 PM 40.5 °F 34.1 °F 34.7 °F 80% 30.14 in 10.0 mi WNW 10.4 mph - N/A   Clear
5:35 PM 38.3 °F 32.5 °F 34.7 °F 87% 30.15 in 10.0 mi WNW 8.1 mph - N/A   Clear
5:55 PM 37.0 °F 31.6 °F 33.6 °F 87% 30.16 in 10.0 mi WNW 6.9 mph - N/A   Clear
6:15 PM 36.5 °F 30.3 °F 32.9 °F 87% 30.17 in 10.0 mi West 8.1 mph - N/A   Clear
6:35 PM 36.1 °F 30.6 °F 32.4 °F 86% 30.18 in 10.0 mi WNW 6.9 mph - N/A   Clear
6:55 PM 35.2 °F 30.3 °F 32.0 °F 88% 30.18 in 10.0 mi WNW 5.8 mph - N/A   Clear
7:15 PM 34.3 °F 30.2 °F 32.0 °F 91% 30.19 in 10.0 mi WNW 4.6 mph - N/A   Clear
7:35 PM 33.3 °F 30.2 °F 31.5 °F 93% 30.18 in 10.0 mi West 3.5 mph - N/A   Clear
7:55 PM 32.9 °F 27.5 °F 30.9 °F 92% 30.19 in 10.0 mi West 5.8 mph - N/A   Clear
8:15 PM 32.7 °F 27.3 °F 30.6 °F 92% 30.20 in 10.0 mi West 5.8 mph - N/A   Clear
8:35 PM 32.4 °F 27.9 °F 30.2 °F 92% 30.20 in 10.0 mi West 4.6 mph - N/A   Clear
8:55 PM 32.0 °F 26.4 °F 30.2 °F 93% 30.21 in 10.0 mi West 5.8 mph - N/A   Clear
9:15 PM 31.8 °F 26.2 °F 30.0 °F 93% 30.22 in 10.0 mi West 5.8 mph - N/A   Clear
9:35 PM 32.0 °F 24.8 °F 29.8 °F 92% 30.22 in 10.0 mi WNW 8.1 mph - N/A   Clear
9:55 PM 32.0 °F 26.4 °F 29.5 °F 90% 30.23 in 10.0 mi West 5.8 mph - N/A   Clear
10:15 PM 31.6 °F 27.0 °F 29.3 °F 91% 30.23 in 10.0 mi West 4.6 mph - N/A   Clear
10:35 PM 31.1 °F 26.4 °F 28.8 °F 91% 30.24 in 10.0 mi West 4.6 mph - N/A   Clear
10:55 PM 30.6 °F 23.8 °F 28.4 °F 92% 30.24 in 10.0 mi West 6.9 mph - N/A   Clear
11:15 PM 30.4 °F 26.9 °F 28.0 °F 91% 30.24 in 10.0 mi West 3.5 mph - N/A   Clear
11:35 PM 30.2 °F 25.4 °F 28.0 °F 92% 30.24 in 10.0 mi West 4.6 mph - N/A   Clear
11:55 PM 30.0 °F 26.5 °F 27.9 °F 92% 30.24 in 10.0 mi West 3.5 mph - N/A   Clear